FW7769 Weather Reports


time (UTC)temp
C
wind
direction
speed
KPH
gust
KPH
rain 1hr
cm
rain 24hr
cm
rain mn
cm
humidity
%
barometer
mb
20260504081541 18 0 0.0 0.0 0.00 0.00 0.00 90 1010.8
20260504044546 16 0 0.0 0.0 0.00 0.00 0.00 94 1010.3
20260504043057 16 0 0.0 0.0 0.00 0.00 0.00 94 1010.4
20260504041540 16 0 0.0 0.0 0.00 0.00 0.00 94 1010.3
20260504040058 16 0 0.0 0.0 0.00 0.00 0.00 94 1010.2
20260504034553 16 0 0.0 0.0 0.00 0.00 0.00 94 1010.4
20260504033043 16 0 0.0 0.0 0.00 0.00 0.00 94 1010.5
20260504031544 16 0 0.0 0.0 0.00 0.00 0.00 94 1010.7
20260504030058 16 0 0.0 0.0 0.00 0.00 0.00 93 1010.8
20260504024549 16 0 0.0 0.0 0.00 0.00 0.00 94 1010.8
20260504023039 16 0 0.0 0.0 0.00 0.00 0.00 94 1010.9
20260504021538 16 0 0.0 0.0 0.00 0.00 0.00 94 1010.9
20260504020043 17 0 0.0 0.0 0.00 0.00 0.00 94 1011.0
20260504014543 17 0 0.0 0.0 0.00 0.00 0.00 95 1011.0
20260504013049 17 0 0.0 0.0 0.00 0.00 0.00 95 1011.1
20260504011541 17 0 0.0 0.0 0.00 0.00 0.00 95 1011.2
20260504010040 17 0 0.0 0.0 0.00 0.00 0.00 95 1011.2
20260504004546 17 0 0.0 0.0 0.00 0.00 0.00 94 1011.1
20260504003036 17 0 0.0 0.0 0.00 0.00 0.00 93 1011.2
20260504001559 17 0 0.0 0.0 0.00 0.00 0.00 92 1011.3
20260504000042 17 0 0.0 0.0 0.00 0.00 0.00 91 1011.3
20260503234540 17 0 0.0 0.0 0.00 0.00 0.00 91 1011.4
20260503233040 17 0 0.0 0.0 0.00 0.00 0.00 90 1011.5
20260503231548 17 0 0.0 0.0 0.00 0.00 0.00 90 1011.5
20260503230043 17 0 0.0 0.0 0.00 0.00 0.00 91 1011.7
20260503224543 17 0 0.0 0.0 0.00 0.00 0.00 90 1011.6
20260503223041 17 0 0.0 0.0 0.00 0.00 0.00 90 1011.8
20260503221547 17 0 0.0 0.0 0.00 0.00 0.00 91 1011.9
20260503220040 18 0 0.0 0.0 0.00 0.00 0.00 91 1011.9
20260503214547 18 0 0.0 1.6 0.00 0.00 0.00 90 1012.0
20260503213045 18 0 0.0 0.0 0.00 0.00 0.00 88 1012.1
20260503211548 18 0 0.0 0.0 0.00 0.00 0.00 88 1012.1
20260503210039 18 0 0.0 0.0 0.00 0.00 0.00 86 1012.1
20260503204546 18 0 0.0 0.0 0.00 0.00 0.00 86 1012.0
20260503203049 18 0 0.0 0.0 0.00 0.00 0.00 86 1011.8
20260503201539 18 0 0.0 0.0 0.00 0.00 0.00 85 1011.7
20260503200042 18 0 0.0 0.0 0.00 0.00 0.00 85 1011.5
20260503194545 18 0 0.0 0.0 0.00 0.00 0.00 84 1011.2
20260503193049 18 0 0.0 1.6 0.00 0.00 0.00 84 1010.8
20260503191538 18 0 0.0 1.6 0.00 0.00 0.00 84 1010.5
20260503190049 18 0 0.0 1.6 0.00 0.00 0.00 84 1010.5
20260503184536 18 0 0.0 3.2 0.00 0.00 0.00 83 1010.3
20260503183055 18 0 0.0 6.4 0.00 0.00 0.00 82 1010.1
20260503181541 19 0 0.0 8.0 0.00 0.00 0.00 80 1009.9
20260503180051 19 0 0.0 4.8 0.00 0.00 0.00 78 1009.9
20260503174539 20 120 0.0 6.4 0.00 0.00 0.00 78 1009.9
20260503173056 20 0 0.0 9.7 0.00 0.00 0.00 76 1009.7
20260503171542 21 57 0.0 6.4 0.00 0.00 0.00 75 1009.4